Regional Weather Roundup
Issued by NWS Jackson, KY

Home | Current Version | Previous Version | Graphics & Text | Print | Product List | Glossary On
Versions: 1 2 3 4 5 6 7 8 9 10 11 12 13 14 15 16 17 18 19 20 21 22 23 24 25 26 27 28 29 30 31 32 33 34 35 36 37 38 39 40 41 42 43 44 45 46 47 48 49 50
000
ASUS43 KJKL 192310
RWRJKL

EAST KENTUCKY HOURLY WEATHER ROUNDUP
NATIONAL WEATHER SERVICE JACKSON KY
700 PM EDT SUN APR 19 2015

NOTE: "FAIR" INDICATES FEW OR NO CLOUDS BELOW 12,000 FEET WITH
NO SIGNIFICANT WEATHER AND/OR OBSTRUCTIONS TO VISIBILITY.

* THESE REPORTS ARE NOT UNDER NWS QUALITY CONTROL AND MAY NOT
  REPORT WEATHER SUCH AS PRECIPITATION AND FOG.

KYZ079-080-083-085-087-088-110-112-115-119-120-200000
...EASTERN KENTUCKY...

CITY           SKY/WX    TMP DP  RH WIND       PRES   REMARKS
JACKSON        CLOUDY    69  60  73 VRB5      29.59F
LONDON         CLOUDY    71  58  63 S10G23    29.58F
SOMERSET*      CLOUDY    70  61  73 S8        29.56S
MONTICELLO*    PTSUNNY   72  66  81 S10       29.57F
MIDDLESBORO*   CLOUDY    69  63  81 S8G16     29.63F
HARLAN APT*    CLOUDY    68  59  73 S5        29.64S
BLACK MTN*       N/A     55  55 100 W5          N/A
PIKEVILLE APT* SUNNY     64  61  88 SE8       29.64F
BIG SANDY*     CLOUDY    65  61  87 S9        29.63F
$$

KYZ035-036-041-042-044-050-067-078-099-200000
...CENTRAL KENTUCKY...

CITY           SKY/WX    TMP DP  RH WIND       PRES   REMARKS
MT STERLING*   PTSUNNY   70  63  78 S16       29.54F
FLEMING/MASON* PTSUNNY   64  63  94 SE9       29.54F
DANVILLE*      PTSUNNY   66  64  94 S5        29.52F
RICHMOND*      CLOUDY    68  63  83 S8        29.53F
LEXINGTON      LGT RAIN  67  62  84 SW7       29.50F
FRANKFORT      CLOUDY    68  65  90 S8        29.48F
$$

KYZ091>093-OHZ055-061-077-WVZ005-015-034-035-042-200000
...SOUTHERN OHIO/WEST VIRGINIA...

CITY           SKY/WX    TMP DP  RH WIND       PRES   REMARKS
COVINGTON      CLOUDY    68  63  84 S13       29.47F
COLUMBUS       CLOUDY    58  55  90 E22G35    29.59F
DAYTON         CLOUDY    63  61  93 SE18G31   29.47F
WILMINGTON     CLOUDY    63  59  87 SE20G30   29.51F
HUNTINGTON     CLOUDY    63  58  83 SE10G21   29.60F
CHARLESTON     LGT RAIN  65  53  65 SE13G23   29.67F
PINEVILLE*     RAIN      59  58  95 MISG      29.79F
BECKLEY        LGT RAIN  56  53  90 SE16G30   29.78F FOG
BLUEFIELD      LGT RAIN  57  52  83 E10G23    29.80F
$$

VAZ002-007-008-TNZ017-027-036-066-071-200000
...SOUTHWEST VIRGINIA/EAST TENNESSEE...

CITY           SKY/WX    TMP DP  RH WIND       PRES   REMARKS
WISE*          CLOUDY    61  61 100 S12       29.71F
JONESVILLE*    CLOUDY    66  64  94 SE6       29.67F
ABINGDON*      CLOUDY    64  64  99 E8        29.71F
BRISTOL        CLOUDY    64  63  96 CALM      29.68F
KNOXVILLE      CLOUDY    71  61  70 SW13      29.62F
OAK RIDGE      CLOUDY    71  62  73 S6        29.63S
CROSSVILLE     PTSUNNY   68  59  73 S8G18     29.63S
NASHVILLE      CLOUDY    69  60  73 SW8       29.59R
$$

...KEY TO REMARKS...
VSB - VISIBILITY IN MILES
WCI - WIND CHILL INDEX
HX  - HEAT INDEX

$$



USA.gov is the U.S. government's official web portal to all federal, state and local government web resources and services.